Flag for China Weather past 2 weeks in Lanzhou, Gansu, China

Now
90 °F

Passing clouds.


Feels Like: 88 °F
Forecast: 64 / 88 °F
Wind: 3 mph from North

Location: Lanzhou / Zhongchuan

Current Time: Jul 31, 2015 at 3:26:32 PM

Latest Report: Jul 31, 2015 at 2:00 PM


Visibility: N/A

Pressure: 29.89 "Hg (25.15 "Hg at 1543m altitude)

Humidity: 33%

Dew point: 57 °F

Location of LanzhouLocation

Historic Weather in Lanzhou — Graph

°F

Lanzhou temperature yesterday

Maximum temperature yesterday: 93 °F (at 6:00 PM)
Minimum temperature yesterday: 57 °F (at 6:00 AM)
Average temperature yesterday: 75 °F

Past Weeks' High & Low Weather Summary

 TemperatureHumidityPressure
High95 °F (Jul 27, 4:00 PM)100% (Jul 18, 5:00 AM)30.21 "Hg (Jul 18, 5:00 AM)
Low45 °F (Jul 17, 3:00 AM)15% (Jul 27, 4:00 PM)29.77 "Hg (Jul 27, 6:00 PM)
Average69 °F54%29.98 "Hg
* Reported Jul 16 2:00 PM — Jul 31 2:00 PM, Lanzhou, Weather by CustomWeather, © 2015

Note: Actual official high and low records may vary slightly from our data, if they occured in-between our weather recording intervals... More about our weather records

Advertising

Lanzhou weather history for previous 24 hours

 ConditionsComfort  
Time TempWeatherWind HumidityBarometerVisibility
2:00 PM
Fri, Jul 31
90 °FPassing clouds.3 mph33%29.89 "HgN/A
1:00 PM88 °FPassing clouds.6 mph35%29.92 "HgN/A
12:00 PM84 °FPassing clouds.6 mph43%29.92 "HgN/A
11:00 AM82 °FSunny.3 mph48%29.95 "Hg10 mi
10:00 AM79 °FSunny.1 mph54%29.95 "Hg10 mi
9:00 AM75 °FSunny.1 mph57%29.95 "Hg10 mi
8:00 AM68 °FClear.3 mph64%29.95 "Hg4 mi
7:00 AM63 °FClear.3 mph73%29.92 "Hg10 mi
6:00 AM61 °FClear.6 mph77%29.92 "Hg10 mi
5:00 AM63 °FClear.3 mph77%29.92 "Hg10 mi
4:00 AM64 °FClear.3 mph73%29.92 "Hg10 mi
3:00 AM66 °FClear.3 mph73%29.95 "Hg10 mi
2:00 AM73 °FPassing clouds.3 mph57%29.95 "HgN/A
1:00 AM77 °FPassing clouds.6 mph51%29.95 "HgN/A
12:00 AM73 °FClear.1 mph50%29.92 "Hg10 mi
11:00 PM
Thu, Jul 30
75 °FClear.1 mph47%29.92 "Hg10 mi
10:00 PM81 °FPassing clouds.3 mph39%29.89 "HgN/A
9:00 PM82 °FSunny.6 mph37%29.86 "Hg10 mi
8:00 PM84 °FSunny.3 mph31%29.83 "Hg10 mi
7:00 PM90 °FPassing clouds.3 mph27%29.83 "HgN/A
6:00 PM93 °FSunny.1 mph26%29.80 "Hg10 mi
5:00 PM91 °FPassing clouds.6 mph28%29.83 "HgN/A
4:00 PM91 °FSunny.3 mph28%29.86 "Hg10 mi
3:00 PM90 °FPassing clouds.6 mph29%29.86 "HgN/A
Weather by CustomWeather, © 2015

See weather overviewHow to use our weather pages